Погода в Мугрееве-Никольском

Россия / Ивановская область     56°37′53″N   42°14′06″E
темп.,
°C
ветер,
м/с
пор.,
м/с
влажн.,
%
обл.,
%
осадки,
мм/ч
давл.,
гПа
погр.,
м
27 сентября, пн
пн2700:00+8ссв499262 0.1 1013362
03:00+8с4995100 0.1 1015424
06:00+8с4996100 0.1 1016558
09:00+9ссв51093100 0.3 1017683
12:00+9с51091100 0.2 1018903
15:00+9ссв51091100 0.3 1020843
18:00+7всв5992100 0.6 10221126
21:00+6всв51087100 1.3 1024896
28 сентября, вт
вт2800:00+5св5988100 0.0 1026850
03:00+5св4987100 0.1 1027661
06:00+3св49935 0.0 1029383
09:00+5всв47765 0.0 1031554
12:00+9св465367 0.0 10311031
15:00+10св455082 0.0 10321153
18:00+5с226835 0.0 103224
21:00+4ссв23755 0.0 103453
29 сентября, ср
ср2900:00+3ссв22784 0.0 103426
03:00+2с22806 0.0 103429
06:00+1с238579 0.0 103557
09:00+6ссв247031 0.0 1035309
12:00+10ссв23555 0.0 1035910
15:00+11с235335 0.0 10341104
18:00+7с227765 0.0 103414
21:00+9ссв2267100 0.0 103430
30 сентября, чт
чт3000:00+8сз1169100 0.0 103410
03:00+8зсз2374100 0.0 103467
06:00+7зсз247935 0.0 103596
09:00+9сз2275100 0.0 1035202
12:00+11з127014 0.0 1035424
15:00+13зсз236136 0.0 10341060
18:00+9з23865 0.0 103341
21:00+8сз23895 0.0 103453
1 октября, пт
пт100:00+7зсз229243 0.0 103435
03:00+9зсз258799 0.0 1034122
06:00+9сз2689100 0.0 1034176
09:00+11сз2683100 0.0 1034279
12:00+13сз3572100 0.0 1034543
15:00+13зсз356990 0.0 1034674
18:00+10зсз238310 0.0 103443
21:00+8зсз22886 0.0 103417